Location: Unspecified
(43.4680°N, 87.1740°E)
Time: 19:55:44
(UTC+00:00)

Cosmos 1892 - Pass Details

Date: 17 April 2021
Orbit: 502 x 523 km, 82.5° (Epoch: 12 May)

Event Time Altitude Azimuth Distance (km) Brightness Sun altitude
Rises 13:46:42 0° 356° (N) 2,612 6.7 -9.3°
Reaches altitude 10° 13:48:52 10° 0° (N) 1,724 5.7 -9.7°
Maximum altitude 13:52:35 55° 80° (E) 613 2.8 -10.3°
Drops below altitude 10° 13:56:16 10° 158° (SSE) 1,717 4.9 -10.9°
Enters shadow 13:56:38 - 160° (SSE) 1,865 5.1 -11.0°
